Station 45139 - West Lake Ontario - Grimsby Image indicating link to RSS feed of recent meteorological observations for station 45139

Data from this station are not quality controlled by NDBC


Conditions at 45139 as of
(11:00 pm EDT on 05/26/2024)
0300 GMT on 05/27/2024:
     

Click on the graph icon in the table below to see a time series plot of the last five days of that observation.

5-day plot - Wind Direction Wind Direction (WDIR): E ( 90 deg true )
5-day plot - Wind Speed Wind Speed (WSPD):9.0 m/s
5-day plot - Wind Gust Wind Gust (GST):10.0 m/s
5-day plot - Wave Height Wave Height (WVHT): 0.7 m
5-day plot - Dominant Wave Period Dominant Wave Period (DPD): 4 sec
5-day plot - Atmospheric Pressure Atmospheric Pressure (PRES):1004.3 mb
5-day plot - Pressure Tendency Pressure Tendency (PTDY): -3.6 mb ( Falling Rapidly )
5-day plot - Air Temperature Air Temperature (ATMP): 16.7 °C
5-day plot - Water Temperature Water Temperature (WTMP): 14.9 °C
5-day plot -  Wind Speed, Wind Gust and Atmospheric Pressure Combined plot of Wind Speed, Gust, and Air Pressure

Data from this station are not quality controlled by NDBC

Previous observations
TIME
(EDT)
5-day plot - Wind Direction
WDIR
 
5-day plot - Wind Speed
WSPD
m/s
5-day plot - Wind Gust
GST
m/s
5-day plot - Wave Height
WVHT
m
5-day plot - Dominant Wave Period
DPD
sec
5-day plot - Average Wave Period
APD
sec
5-day plot - Mean Wave Direction
MWD
 
5-day plot - Atmospheric Pressure
PRES
mb
5-day plot - Pressure Tendency
PTDY
mb
5-day plot - Air Temperature
ATMP
°C
5-day plot - Water Temperature
WTMP
°C
5-day plot - Dew Point
DEWP
°C
5-day plot - Salinity
SAL
psu
5-day plot - Visibility
VIS
km
5-day plot - Tide (above MLLW)
TIDE
m
2024-05-26 10:00 pm E 7.0 8.0 0.7 4--1005.8 -3.2 16.3 14.9----
2024-05-26 09:00 pm E 5.0 6.0 0.6 4--1007.2 -3.2 16.3 15.0----
2024-05-26 08:00 pm E 4.0 5.0 0.4 3--1008.0 -2.8 16.0 15.0----
2024-05-26 07:00 pmENE 5.0 6.0 0.3 3--1009.0 -2.9 15.3 15.1----
2024-05-26 06:00 pm E 4.0 5.0 0.2 2--1010.4 -2.5 15.3 15.2----
2024-05-26 05:00 pm E 5.0 5.0 0.1 2--1010.8 -3.1 15.0 15.5----
2024-05-26 04:00 pmENE 3.0 3.0 0.1 2--1011.9 -2.4 15.6 15.5----
2024-05-26 03:00 pmNNE 2.0 3.0 0.1 2--1012.9 -1.5 14.8 15.7----
2024-05-26 02:00 pmENE 1.0 2.0 0.1 2--1013.9 -0.8 14.1 14.9----
2024-05-26 01:00 pm E 3.0 3.0 0.1 2--1014.3 -0.3 13.7 14.4----
2024-05-26 12:00 pmENE 4.0 5.0 0.1 3--1014.4 -0.3 13.5 14.3----
2024-05-26 11:00 am NE 3.0 4.0 0.1 3--1014.7 +0.4 13.6 14.1----
2024-05-26 10:00 am E 3.0 4.0 0.2 3--1014.6 +0.7 13.0 14.1----
2024-05-26 09:00 amENE 4.0 4.0 0.1 3--1014.7 +1.2 13.0 14.0----
2024-05-26 08:00 am NE 2.0 2.0 0.1 3--1014.3 +1.5 13.1 14.0----
2024-05-26 07:00 am E 2.0 2.0 0.1 3--1013.9 +0.9 12.9 13.9----
2024-05-26 06:00 am N 2.0 2.0 0.2 3--1013.5 +0.9 13.2 13.8----
2024-05-26 05:00 amWSW 1.0 2.0 0.2 3--1012.8 +0.3 13.2 13.9----
2024-05-26 04:00 am SW 2.0 3.0 0.2 3--1013.0 +0.6 13.0 13.9----
2024-05-26 03:00 am S 1.0 2.0 0.2 3--1012.6 +0.6 14.0 13.9----
2024-05-26 02:00 am E 1.0 1.0 0.3 4--1012.5 +0.9 13.9 14.0----
2024-05-26 01:00 am N 2.0 3.0 0.3 4--1012.4 +1.4 14.0 14.1----
2024-05-26 12:00 am NW 2.0 3.0 0.3 4--1012.0 +1.5 14.2 14.1----